User: anonymous   Login
Location: Castelbiague
(43.0361°N, 0.9246°E)
Time: 20:00:11
(UTC+00:00)
Language:

SL-16 DEB - Orbit

View from above orbital plane
View from above orbital plane
View from above satellite
View from above satellite

Ground track
Ground track

The orbit data is extracted from the following two-line orbital elements,

1 39850U 92093LC  22016.12390594  .00000303  00000-0  21323-3 0  9992
2 39850  71.3369 168.2148 0094582  23.6961 336.8469 14.03386678840558
Epoch (UTC): 16 January 2022 02:58:25
Eccentricity: 0.0094582
inclination: 71.3369°
perigee height: 813 km
apogee height: 951 km
right ascension of ascending node: 168.2148°
argument of perigee: 23.6961°
revolutions per day: 14.03386678
mean anomaly at epoch: 336.8469°
orbit number at epoch: 84055

The dashed part of the orbit path shows where the satellite is in the earth's shadow,  

DLR